Weather History for KLWD - September, 2014

Change the Weather History Date:

Thursday, September 25, 2014

  Actual Average Record
Temperature  
Mean Temperature 70 °F 61 °F  
Max Temperature 79 °F 72 °F 87 °F (1967)
Min Temperature 60 °F 50 °F 37 °F (1984)
Degree Days  
Heating Degree Days 0 5  
Month to date heating degree days 99 60  
Since 1 July heating degree days 106 68  
Cooling Degree Days 5 2  
Month to date cooling degree days 65 88  
Year to date cooling degree days 882 926  
Growing Degree Days 20 (Base 50)    
Moisture  
Dew Point 56 °F    
Average Humidity 65    
Maximum Humidity 84    
Minimum Humidity 45    
Precipitation  
Precipitation 0.00 in 0.10 in 2.09 in (1976)
Month to date precipitation 4.70 3.03  
Sea Level Pressure  
Sea Level Pressure 30.17 in    
Wind  
Wind Speed 6 mph (SSE)    
Max Wind Speed 12 mph    
Max Gust Speed 19 mph    
Visibility 10 miles    
Events      
T = Trace of Precipitation, MM = Missing Value Source: NWS Daily Summary

Daily Weather History Graph

Daily Weather History Graph

Search for Another Location

Airport or City:

Trip Planner

Search our weather history database for the weather conditions in past years. The results will help you decide how hot, cold, wet, or windy it might be!

Date:

Astronomy

Sep. 25, 2014 Rise Set
Actual Time 7:06 AM CDT 7:07 PM CDT
Civil Twilight 6:38 AM CDT 7:34 PM CDT
Nautical Twilight 6:06 AM CDT 8:06 PM CDT
Astronomical Twilight 5:34 AM CDT 8:38 PM CDT
Moon 8:25 AM CDT (9/25) 7:51 PM CDT (9/25)
Length of Visible Light 12h 56m
Length of Day
12h 01m
New Moon, 2% of the Moon is Illuminated
Sep 25
New Moon
Oct 1
First Quarter
Oct 8
Full
Oct 15
Last Quarter
Oct 23
New

Hourly Weather History & Observations

Time (CDT) Temp. Dew Point Humidity Pressure Visibility Wind Dir Wind Speed Gust Speed Precip Events Conditions
12:53 AM 60.1 °F 55.0 °F 83% 30.20 in 10.0 mi SE 6.9 mph - N/A   Overcast
1:53 AM 60.1 °F 54.0 °F 80% 30.20 in 10.0 mi SE 4.6 mph - N/A   Mostly Cloudy
2:53 AM 61.0 °F 55.0 °F 81% 30.19 in 10.0 mi SSE 3.5 mph - N/A   Overcast
3:53 AM 61.0 °F 55.0 °F 81% 30.19 in 10.0 mi South 5.8 mph - N/A   Overcast
4:53 AM 62.1 °F 53.1 °F 72% 30.19 in 10.0 mi South 6.9 mph - N/A   Overcast
5:53 AM 61.0 °F 54.0 °F 78% 30.20 in 10.0 mi South 6.9 mph - N/A   Overcast
6:53 AM 61.0 °F 54.0 °F 78% 30.20 in 10.0 mi SSE 6.9 mph - N/A   Overcast
7:53 AM 61.0 °F 54.0 °F 78% 30.21 in 10.0 mi SSE 6.9 mph - N/A   Overcast
8:53 AM 63.0 °F 55.0 °F 75% 30.22 in 10.0 mi SSE 5.8 mph - N/A   Overcast
9:53 AM 66.0 °F 57.0 °F 73% 30.22 in 10.0 mi South 6.9 mph - N/A   Mostly Cloudy
10:53 AM 70.0 °F 57.9 °F 65% 30.21 in 10.0 mi SSE 4.6 mph - N/A   Clear
11:53 AM 73.0 °F 57.9 °F 59% 30.20 in 10.0 mi South 5.8 mph - N/A   Clear
12:53 PM 75.9 °F 57.9 °F 54% 30.19 in 10.0 mi SE 6.9 mph - N/A   Clear
1:53 PM 78.1 °F 55.0 °F 45% 30.17 in 10.0 mi South 6.9 mph - N/A   Clear
2:53 PM 79.0 °F 57.9 °F 48% 30.15 in 10.0 mi SSE 10.4 mph - N/A   Clear
3:53 PM 79.0 °F 57.0 °F 47% 30.13 in 10.0 mi South 6.9 mph - N/A   Clear
4:53 PM 78.1 °F 55.9 °F 46% 30.13 in 10.0 mi South 9.2 mph - N/A   Clear
5:53 PM 77.0 °F 57.9 °F 52% 30.12 in 10.0 mi SSE 6.9 mph - N/A   Clear
6:53 PM 73.0 °F 57.9 °F 59% 30.13 in 10.0 mi SE 4.6 mph - N/A   Clear
7:53 PM 71.1 °F 57.9 °F 63% 30.14 in 10.0 mi ESE 3.5 mph - N/A   Clear
8:53 PM 68.0 °F 57.9 °F 70% 30.14 in 10.0 mi SE 4.6 mph - N/A   Clear
9:53 PM 66.0 °F 57.0 °F 73% 30.15 in 10.0 mi ESE 4.6 mph - N/A   Clear
10:53 PM 66.0 °F 57.0 °F 73% 30.16 in 10.0 mi SE 5.8 mph - N/A   Clear
11:53 PM 63.0 °F 55.9 °F 78% 30.15 in 10.0 mi ESE 5.8 mph - N/A   Clear